This is the latest recevied weather packets stored in our database for station/object ANJALA. If no packets are shown the sender has not sent any weather packets the latest 10 day(s).
| Time | Temp. | Humidity | Pressure | Rain* | Wind** | Luminosity | Snow |
|---|---|---|---|---|---|---|---|
| 1788494681 | 7.22° C | 99% | - | 0 mm | - | - | - |
| 1788493481 | 7.22° C | 99% | - | 0 mm | - | - | - |
| 1788492282 | 7.22° C | 99% | - | 0 mm | - | - | - |
| 1788491083 | 7.22° C | 99% | - | 0 mm | - | - | - |
| 1788489882 | 7.22° C | 99% | - | 0 mm | - | - | - |
| 1788488681 | 6.67° C | 98% | - | 0 mm | - | - | - |
| 1788487271 | 7.78° C | 99% | - | 0 mm | - | - | - |
| 1788486284 | 7.22° C | 98% | - | 0 mm | - | - | - |
| 1788485081 | 7.78° C | 99% | - | 0 mm | - | - | - |
| 1788483882 | 7.78° C | 98% | - | 0 mm | - | - | - |
| 1788482682 | 7.78° C | 98% | - | 0 mm | - | - | - |
| 1788481482 | 7.78° C | 98% | - | 0 mm | - | - | - |
| 1788480281 | 8.33° C | 97% | - | 0 mm | - | - | - |
| 1788479081 | 8.33° C | 96% | - | 0 mm | - | - | - |
| 1788477883 | 8.89° C | 95% | - | 0 mm | - | - | - |
| 1788476682 | 8.89° C | 94% | - | 0 mm | - | - | - |
| 1788475481 | 10° C | 91% | - | 0 mm | - | - | - |
| 1788473080 | 10.56° C | 89% | - | 0 mm | - | - | - |
| 1788471880 | 10.56° C | 89% | - | 0 mm | - | - | - |
| 1788470681 | 11.67° C | 84% | - | 0 mm | - | - | - |
| 1788469482 | 11.67° C | 85% | - | 0 mm | - | - | - |
| 1788467082 | 12.22° C | 83% | - | 0 mm | - | - | - |
| 1788465881 | 12.78° C | 81% | - | 0 mm | - | - | - |
| 1788464680 | 12.22° C | 82% | - | 0 mm | - | - | - |
| 1788463480 | 12.78° C | 81% | - | 0 mm | - | - | - |
* Rain latest hour (hover to see other rain measurements)
** Current wind speed in m/s (hover to see current wind gust speed)